Dewpoint
19 18 17 20 22 22 23 25 24 22 24 23 16 16 20 19 13 15 20 24 23 23 26 28 29 31 31 32 33 34 35 37 39 39 39 39 39 38 38 38 38 39 39 39 40 40 41 41 41 42 43 44 46 47 49 51 51 51 51 51 51 50 49 50 50 50 51 51 51 52 52 52 52 52 53 53 53 54 53 53 54 54 54 53 53 53 53
19 19 20 22 22 23 24 25 25 24 25 25 26 25 25 22 20 23 25 25 24 24 26 28 29 31 32 33 34 36 37 37 38 38 38 39 39 38 37 37 37 37 37 37 37 38 38 38 39 39 40 41 41 44 46 48 49 49 51 50 50 49 49 49 49 49 50 50 51 50 51 51 51 51 52 52 52 51 52 52 52 52 53 52 52 52 52
23 25 29 28 27 26 25 25 26 25 24 24 25 25 26 25 24 24 25 24 24 26 28 28 29 29 30 31 32 34 35 37 38 38 38 39 38 38 38 38 37 37 37 36 35 34 34 35 36 37 38 38 40 41 41 44 46 47 49 49 49 49 49 48 48 49 50 50 50 50 49 50 50 51 51 52 52 52 51 51 52 52 52 51 52 52 52
20 22 28 27 28 26 26 26 27 27 25 23 26 23 25 22 22 24 23 22 20 25 27 27 27 26 27 28 29 32 34 36 37 37 38 38 39 39 39 40 40 40 40 39 37 34 33 33 33 34 36 35 36 37 37 38 41 43 46 47 47 47 47 46 46 47 47 48 49 50 49 49 49 49 50 50 51 51 51 51 51 51 50 51 51 51 51
17 19 23 25 24 22 19 21 26 27 26 26 25 25 26 27 24 22 20 22 23 24 31 24 24 25 25 25 26 28 31 34 36 36 36 37 38 39 39 39 39 40 40 40 39 39 36 34 34 34 35 34 34 36 37 38 39 38 39 41 42 43 43 44 45 45 45 46 46 46 46 47 46 46 47 48 49 49 51 52 51 51 51 50 50 50 50
15 19 22 22 16 9 13 23 28 29 26 26 23 23 24 25 27 23 24 25 26 26 25 24 24 23 24 25 26 28 28 28 29 31 34 35 35 36 37 38 39 40 39 39 39 39 39 39 38 37 38 37 36 37 38 37 36 36 36 36 37 37 38 39 41 42 43 44 44 43 43 43 44 44 44 44 44 44 45 47 48 48 50 50 50 50 50
14 18 18 14 8 11 23 27 28 29 26 24 22 23 24 25 25 25 24 24 25 26 26 25 24 24 23 23 23 24 26 27 26 26 27 29 31 31 31 30 32 35 39 40 41 41 41 42 40 38 37 38 37 36 37 37 37 37 37 37 37 37 37 38 39 38 39 40 41 40 40 41 42 42 42 39 41 41 42 43 44 44 44 45 46 47 47
13 11 8 7 7 21 26 28 28 29 28 26 23 21 22 24 24 25 22 23 24 25 26 26 26 23 21 21 23 23 24 27 28 27 28 28 30 30 32 31 32 34 36 39 41 43 43 42 41 39 39 40 38 37 39 39 39 38 38 39 39 39 38 38 39 39 39 38 39 39 39 38 39 39 39 40 40 39 39 39 39 39 39 41 41 41 41
13 9 6 10 22 23 23 22 24 24 23 24 21 18 18 24 23 24 22 22 23 23 23 25 26 27 24 19 20 22 23 25 27 26 29 28 32 31 31 31 31 32 32 36 40 40 37 37 36 37 39 41 39 37 37 36 35 36 37 36 37 38 39 39 41 40 39 39 39 38 37 37 37 37 37 37 38 39 38 38 39 40 40 40 38 39 41
15 15 12 11 7 9 18 23 25 27 28 27 25 19 18 23 22 25 22 21 22 22 22 22 24 26 23 18 18 20 23 24 26 27 28 27 28 27 27 28 29 29 30 30 33 34 32 32 33 34 35 40 39 37 38 38 37 37 36 36 37 38 37 36 37 38 39 39 39 39 38 36 37 38 38 38 38 40 39 40 41 40 40 39 37 38 40
12 9 10 7 8 9 14 22 24 26 26 27 24 21 17 21 22 23 22 21 22 22 20 21 25 24 19 17 21 21 23 24 26 26 26 26 27 27 27 27 28 29 30 33 34 31 32 31 31 33 34 36 36 36 37 38 39 39 39 38 39 39 40 40 39 37 39 40 39 39 38 38 39 38 38 38 39 40 39 41 41 41 40 38 36 35 36
10 8 8 8 4 15 21 24 25 26 26 26 21 13 10 19 22 22 22 21 21 22 24 21 20 21 15 18 20 22 24 26 28 28 27 28 27 27 27 28 30 31 34 29 29 28 28 29 30 30 31 31 35 34 35 36 37 37 38 41 42 42 42 42 41 39 40 41 40 39 38 39 39 38 40 40 39 39 38 39 39 38 38 36 35 33 33
15 16 13 17 19 22 25 24 26 23 26 22 14 11 15 21 23 22 22 22 22 22 21 21 17 19 20 22 23 26 27 28 28 30 31 31 30 28 28 28 34 29 29 29 29 28 28 29 30 31 31 30 32 33 34 33 32 33 34 35 37 37 38 39 39 40 40 40 40 41 40 40 39 41 40 39 39 39 39 37 38 37 35 35 34 32 32
11 11 16 17 17 20 23 25 27 25 23 16 12 16 22 24 22 23 24 23 23 23 22 21 21 22 26 29 26 25 26 27 28 29 29 29 29 29 31 33 33 30 30 30 30 29 29 31 33 31 31 30 32 32 32 31 30 32 33 34 35 36 36 36 36 37 38 38 38 39 40 40 39 39 39 39 39 39 38 38 37 36 35 34 33 31 30
11 8 11 12 12 18 26 26 22 25 17 15 21 25 26 26 24 25 24 25 24 25 25 25 24 25 26 26 26 27 28 28 28 29 29 29 29 29 29 29 30 32 30 30 30 30 30 31 32 32 31 31 32 33 31 31 32 32 33 34 34 34 35 35 36 36 37 38 38 39 39 39 38 38 39 40 39 40 39 38 38 36 35 34 33 31 31
11 10 10 11 16 22 28 24 18 22 25 24 27 28 26 30 29 27 27 27 27 27 27 27 27 28 27 27 27 28 28 29 29 29 29 29 29 30 30 30 31 33 31 31 30 30 30 31 32 32 31 31 33 33 32 32 33 34 34 34 34 35 36 36 36 36 36 37 38 38 38 38 38 37 39 40 40 40 39 39 37 35 33 33 32 32 31
18 16 19 23 27 29 30 29 27 29 31 33 34 32 30 29 29 32 30 29 29 29 28 29 27 28 28 27 27 27 27 28 28 29 29 29 30 30 30 30 32 31 31 31 31 31 31 31 32 32 32 31 33 33 33 34 34 34 34 34 34 34 33 34 35 36 37 37 37 37 38 38 37 37 38 39 39 37 38 37 37 37 34 34 35 33 31
26 27 28 30 30 31 29 31 33 32 32 33 33 32 29 31 30 29 29 29 29 29 29 30 28 28 28 27 28 28 28 28 28 29 29 29 29 29 30 30 30 31 30 30 30 31 32 32 33 34 33 33 32 33 33 34 34 34 34 35 34 34 34 34 34 34 35 35 35 36 37 37 37 36 37 38 39 38 38 38 38 37 35 34 34 32 31
17 17 24 25 26 26 27 28 29 30 30 30 30 29 29 30 30 30 30 29 29 29 29 28 27 27 26 27 27 27 27 27 27 28 28 29 29 28 28 29 30 29 29 29 29 30 30 31 32 33 33 34 34 34 34 34 34 34 34 35 35 35 34 34 34 34 35 34 34 35 35 35 35 36 36 37 37 39 39 38 37 37 35 35 35 33 32
9 9 23 24 24 25 26 26 27 28 29 30 30 30 30 30 30 30 29 28 29 28 27 27 27 26 25 25 26 26 26 27 27 27 28 28 28 28 28 28 29 28 28 28 28 29 29 29 31 32 33 33 34 34 34 34 34 34 34 34 34 34 34 34 34 34 35 34 35 35 35 36 36 34 34 35 37 38 38 38 38 37 36 36 36 34 33
20 21 22 24 24 24 25 26 27 26 27 28 28 28 27 27 27 27 27 27 27 27 27 26 25 25 25 25 25 25 26 26 26 27 27 27 27 27 27 27 28 28 28 28 28 28 29 29 30 30 31 31 32 33 33 34 34 34 34 34 34 34 34 34 34 35 35 35 35 36 35 33 32 32 35 35 36 36 36 37 40 39 38 37 37 37 35
12 15 21 24 16 13 22 24 26 27 28 28 27 27 27 27 27 26 26 26 26 26 27 27 25 25 25 25 25 26 26 26 26 27 27 27 27 27 27 28 27 27 28 28 28 29 29 29 29 29 29 30 31 31 32 33 34 33 34 34 34 34 34 33 34 34 34 34 35 35 36 35 34 33 32 34 34 35 36 37 37 37 36 36 36 35 35
7 16 23 25 21 20 22 25 26 27 28 28 27 27 27 27 27 26 25 25 25 25 25 26 26 25 25 26 26 26 27 26 27 27 28 28 28 28 28 28 27 27 28 29 29 29 29 30 30 30 30 30 30 30 30 31 32 32 33 33 33 33 34 33 33 33 33 33 33 33 34 35 35 34 33 34 33 34 34 35 35 37 35 36 35 35 35
21 20 24 24 23 24 25 25 28 28 27 27 27 27 27 26 26 26 25 25 25 25 25 25 26 26 26 27 26 27 27 28 28 29 29 29 29 29 29 29 29 29 29 30 30 30 31 31 31 31 31 31 31 31 31 31 31 31 31 32 32 32 33 33 33 32 33 33 32 32 33 33 34 34 35 34 34 33 34 35 36 36 36 35 35 34 34
20 24 24 24 24 25 26 27 27 27 29 28 27 27 27 27 26 26 25 25 25 25 25 25 26 26 28 28 28 28 29 29 29 29 30 30 29 29 29 30 30 31 32 32 32 32 32 32 32 32 32 32 32 31 31 31 31 31 31 31 31 31 32 33 33 32 33 33 32 33 32 33 33 33 34 34 35 34 34 34 34 35 35 34 34 34 33
25 26 27 27 27 27 27 26 26 26 27 29 29 29 30 32 27 29 25 25 26 25 26 26 26 27 27 28 29 30 29 29 29 30 29 29 29 30 30 31 32 32 32 32 33 33 33 33 33 33 33 33 33 33 33 32 32 32 32 31 31 31 31 32 32 34 34 33 33 33 33 33 33 33 34 35 36 35 34 34 35 34 33 34 34 33 33
27 28 28 27 26 26 26 26 25 26 26 26 26 27 27 27 31 29 26 26 26 26 26 27 26 27 27 28 30 30 29 29 29 29 29 29 30 30 31 32 32 32 32 32 33 33 33 33 33 33 33 33 34 34 34 34 34 33 33 32 32 31 30 30 32 33 34 33 33 33 33 33 33 33 33 33 34 34 35 36 35 33 30 30 32 33 33
27 27 25 23 22 26 26 26 26 27 26 26 25 26 26 25 24 25 25 25 26 26 26 26 26 27 28 29 30 30 29 29 29 29 29 29 30 31 32 32 32 32 32 33 33 33 33 33 33 33 33 33 34 35 35 35 35 35 34 34 33 33 32 31 32 33 34 34 33 33 33 33 33 33 33 33 33 33 33 33 33 30 28 29 30 33 33
26 26 26 25 24 25 27 26 26 26 26 28 27 25 25 25 25 25 25 25 25 25 26 27 27 27 27 29 30 29 29 29 29 29 29 30 31 31 32 32 32 33 33 33 33 33 33 33 33 33 33 34 35 36 37 37 37 36 36 36 35 34 34 34 34 33 34 33 33 34 31 32 32 32 32 32 30 32 31 32 31 30 30 30 31 31 32
26 26 26 26 27 27 26 25 25 25 25 26 26 26 25 26 26 26 26 26 25 26 26 26 25 27 27 29 30 30 30 30 30 30 30 30 31 32 32 32 33 32 32 31 31 32 32 32 32 33 34 35 36 36 37 37 38 38 37 37 37 36 35 35 34 34 34 33 33 31 32 32 32 32 31 31 31 31 31 30 30 30 30 29 31 30 30
25 25 26 26 26 25 25 25 25 25 25 25 25 26 25 25 25 26 26 26 25 26 25 25 26 26 26 28 30 30 30 30 30 30 30 30 30 31 31 32 31 30 30 30 31 32 32 32 32 33 34 35 35 36 38 38 38 38 38 38 37 35 34 33 33 34 33 33 32 32 32 32 32 31 30 30 30 31 31 31 30 30 29 30 30 29 30
26 25 25 26 25 24 25 25 25 25 25 25 25 25 25 25 25 26 26 26 26 25 25 25 25 26 27 28 29 29 29 29 29 30 30 30 30 30 31 31 31 31 31 31 32 32 32 32 32 33 34 34 35 37 38 38 37 37 37 36 37 37 35 33 34 33 33 32 32 32 31 31 31 31 31 31 31 31 31 30 30 29 30 29 29 29 29
25 24 25 25 25 25 25 24 25 24 24 24 23 26 26 26 25 27 27 27 26 24 24 24 25 25 26 26 27 28 28 28 29 29 28 27 28 30 31 31 31 31 31 32 32 32 32 32 32 32 33 34 36 37 37 38 37 37 38 37 37 37 34 34 34 34 33 32 32 32 31 31 31 31 31 31 30 28 30 29 29 29 29 30 31 31 30
26 26 26 26 27 26 25 25 25 24 24 24 24 25 26 27 26 27 27 27 27 25 25 26 25 24 26 25 25 25 26 27 27 27 27 28 28 29 30 31 31 31 31 32 32 31 31 32 32 32 32 34 36 37 37 37 37 37 37 37 37 36 35 35 34 34 33 33 32 31 31 31 31 31 30 30 30 30 29 29 29 29 29 30 29 29 30
26 26 25 26 27 26 26 26 25 25 24 23 22 24 25 26 26 27 27 27 27 27 25 24 24 26 25 23 21 21 24 26 26 27 27 28 29 30 30 30 30 30 30 30 30 30 31 32 32 31 31 34 35 36 36 37 37 37 36 36 36 36 35 35 35 33 32 32 31 31 30 30 30 30 30 31 30 30 30 29 29 29 29 29 29 30 30
26 26 27 25 25 26 27 25 26 26 25 23 22 20 23 25 25 26 26 27 29 28 25 23 24 25 24 20 20 19 20 23 25 27 28 28 29 30 29 29 28 28 28 28 29 29 30 31 31 31 31 32 34 35 35 36 37 37 36 36 36 35 35 34 33 33 32 32 31 31 31 30 30 30 30 31 31 31 30 30 30 30 29 29 30 30 30
26 26 27 26 26 26 26 26 26 26 26 25 23 23 26 25 25 25 27 28 27 27 25 23 24 24 23 22 21 19 19 22 25 26 28 29 29 29 29 28 28 27 27 26 27 29 29 30 30 31 31 32 32 34 34 33 36 37 37 36 36 35 35 34 34 33 33 33 32 32 31 31 32 32 31 33 32 32 31 31 30 30 30 30 30 31 30
27 27 27 27 27 26 26 26 26 26 26 25 25 25 26 25 25 23 24 26 26 25 23 23 24 23 25 24 21 20 21 22 24 25 27 28 29 28 28 27 27 27 26 26 28 29 29 29 30 29 29 30 31 32 32 32 33 36 36 36 35 35 35 35 34 34 34 34 33 33 33 32 32 32 33 33 33 32 31 31 31 31 31 31 31 31 30
26 26 26 26 26 26 26 26 25 26 26 26 26 26 25 25 24 22 23 24 23 23 21 23 26 25 25 23 22 22 22 23 24 24 25 27 29 28 27 27 26 26 26 28 29 29 29 29 29 28 28 29 30 31 31 31 32 35 35 35 35 34 34 34 34 34 34 34 34 33 33 33 33 32 32 33 32 32 31 32 31 31 31 31 31 30 29
26 27 27 26 26 26 26 26 25 25 25 26 25 26 26 24 23 22 23 23 22 22 21 22 24 24 23 22 22 22 22 23 23 23 24 26 28 27 27 26 26 26 27 29 28 28 29 29 29 29 29 29 29 29 30 31 31 32 33 33 34 34 34 34 34 34 34 33 33 32 33 32 32 32 32 32 32 32 31 31 31 31 30 30 29 29 28
27 26 26 26 26 25 26 26 25 26 24 24 25 25 24 24 22 22 22 23 23 22 22 22 22 23 23 23 23 22 23 24 24 23 24 24 25 25 25 24 25 26 26 28 28 28 29 29 29 29 29 29 29 29 29 29 30 29 30 31 32 32 32 32 32 32 32 32 32 32 31 31 31 30 30 30 30 30 29 30 30 29 29 29 28 28 28
27 26 25 26 26 26 26 26 25 25 25 25 25 25 24 23 22 21 21 22 23 23 22 22 24 22 23 22 23 23 22 22 23 23 23 23 23 23 23 23 25 25 28 28 27 27 27 27 28 29 29 29 29 29 29 29 29 29 29 29 29 30 31 31 31 31 32 31 31 30 30 30 29 29 29 29 28 28 28 28 28 28 28 28 28 28 28
26 26 26 26 26 26 26 26 26 26 25 25 25 25 25 22 22 21 21 21 23 22 22 23 24 24 23 22 21 21 20 21 21 22 22 22 23 24 24 24 25 25 28 27 27 26 27 27 27 28 29 29 29 30 29 28 28 28 28 28 29 29 29 29 29 29 29 29 28 28 28 28 28 28 27 27 27 27 27 27 27 27 27 27 27 27 27
27 27 27 27 27 27 26 26 25 25 25 26 26 25 24 23 22 21 21 22 22 22 22 22 22 21 22 21 20 20 20 20 21 21 21 21 22 22 24 24 24 25 26 26 26 26 26 26 27 28 28 29 29 29 29 28 28 28 28 28 28 28 28 28 28 28 28 28 28 27 27 27 27 27 27 27 27 27 27 27 27 27 27 27 27 27 27
27 28 28 28 27 26 26 26 26 27 26 26 25 23 23 22 22 21 21 21 22 23 23 22 21 21 21 21 21 21 21 21 22 21 20 20 19 20 23 25 24 25 25 25 25 25 25 26 27 27 27 28 28 28 27 27 28 28 28 28 28 28 28 28 28 28 28 27 27 27 27 27 27 27 27 27 27 26 27 27 27 27 27 27 27 27 27
27 28 28 27 27 28 28 28 28 26 26 25 25 23 22 22 22 22 21 21 21 22 23 22 21 21 21 21 22 22 22 22 22 22 22 21 20 22 23 24 23 25 25 25 24 24 25 26 26 26 26 26 26 26 26 26 26 26 26 27 27 28 28 28 28 28 27 27 27 27 27 27 27 27 27 27 27 27 27 27 27 27 27 27 27 28 28
28 27 28 28 28 28 28 27 27 26 26 24 24 25 23 22 22 21 21 21 20 20 22 23 22 22 22 21 21 21 21 21 21 21 22 22 22 23 23 24 24 24 24 24 24 24 24 25 25 25 25 25 25 25 25 25 25 25 25 26 26 26 27 27 27 27 27 28 28 28 28 28 28 27 28 28 27 27 27 27 27 27 27 27 27 28 28
28 28 29 29 29 29 27 26 27 27 26 26 26 26 24 22 22 22 21 21 21 21 21 22 22 23 22 22 22 22 22 21 17 19 20 21 22 23 23 22 23 24 23 23 24 24 25 25 25 25 25 24 24 25 25 25 25 25 25 25 25 25 25 25 26 26 26 27 27 27 27 27 28 28 28 27 27 27 27 27 27 27 27 27 27 27 27
27 27 28 28 28 27 28 28 27 27 27 27 26 26 24 22 22 22 21 21 20 19 19 20 22 23 23 23 22 22 23 22 18 16 20 22 23 23 23 23 24 24 22 22 23 23 24 24 24 24 24 24 23 24 24 24 24 24 24 24 23 24 24 24 24 25 25 26 26 26 26 26 27 27 27 28 28 28 27 27 27 27 27 27 26 26 26
25 26 27 27 28 29 29 29 28 29 29 28 26 26 23 21 20 20 21 20 19 19 18 19 20 21 22 23 23 23 23 23 23 23 22 23 24 23 23 23 23 24 23 22 22 21 23 23 23 23 23 22 23 23 23 23 23 23 23 22 23 23 23 24 25 25 24 25 25 25 25 25 25 26 26 26 27 27 27 27 27 27 27 26 25 25 25
25 26 26 27 28 28 29 29 29 30 30 29 28 26 23 21 21 21 20 21 19 18 17 17 18 19 20 21 22 22 22 22 22 23 22 23 23 23 23 23 23 22 21 20 19 19 19 20 20 21 22 22 22 22 22 22 22 22 22 21 21 21 22 23 22 23 23 23 23 23 23 23 23 23 23 23 23 23 24 24 24 24 24 24 24 24 24
25 25 26 27 28 28 29 29 29 28 28 28 28 26 24 23 23 22 21 22 18 17 16 16 16 17 19 19 20 20 21 21 21 22 23 23 23 23 24 23 21 20 20 19 19 21 20 21 22 23 22 20 20 21 23 23 22 21 22 21 22 21 21 21 20 21 20 22 22 22 22 22 22 22 21 21 21 20 20 20 20 21 22 22 23 23 23